Coeur d'Alene, ID

4:53 AM PDT on June 28, 2017 (GMT -0700)
Coeur D'Alene

Weather History for KCOE - January, 2013

Change the Weather History Date:

Thursday, January 3, 2013

  Actual Average Record
Temperature  
Mean Temperature 17 °F -  
Max Temperature 26 °F 31 °F 44 °F (2003)
Min Temperature 8 °F 22 °F -14 °F (2009)
Degree Days  
Heating Degree Days 48    
Moisture  
Dew Point 12 °F    
Average Humidity 80    
Maximum Humidity 100    
Minimum Humidity 63    
Precipitation  
Precipitation 0.00 in - - ()
Sea Level Pressure  
Sea Level Pressure 30.34 in    
Wind  
Wind Speed 8 mph (ENE)    
Max Wind Speed 14 mph    
Max Gust Speed 16 mph    
Visibility 10 miles    
Events      
Averages and records for this station are not official NWS values.
T = Trace of Precipitation, MM = Missing Value Source: NWS Daily Summary

Daily Weather History Graph

Daily Weather History Graph

Search for Another Location

Airport or City:

Trip Planner

Search our weather history database for the weather conditions in past years. The results will help you decide how hot, cold, wet, or windy it might be!

Date:

Astronomy

Jan. 03, 2013 Rise Set
Actual Time 7:36 AM PST 4:08 PM PST
Civil Twilight 7:00 AM PST 4:44 PM PST
Nautical Twilight 6:21 AM PST 5:23 PM PST
Astronomical Twilight 5:43 AM PST 6:00 PM PST
Moon 11:20 PM PST (1/3) 10:20 AM PST (1/3)
Length of Visible Light 9h 43m
Length of Day
8h 32m
Waning Gibbous, 64% of the Moon is Illuminated
Jan 3
Waning Gibbous
Jan 4
Last Quarter
Jan 11
New
Jan 18
First Quarter
Jan 26
Full

Hourly Weather History & Observations

Time (PST) Temp. Windchill Dew Point Humidity Pressure Visibility Wind Dir Wind Speed Gust Speed Precip Events Conditions
12:15 AM 15.8 °F 4.2 °F 10.4 °F 79% 30.42 in 10.0 mi East 9.2 mph - N/A   Clear
12:35 AM 15.8 °F 4.2 °F 10.4 °F 79% 30.41 in 10.0 mi ENE 9.2 mph - N/A   Clear
12:55 AM 14.0 °F 2.9 °F 8.6 °F 79% 30.41 in 10.0 mi East 8.1 mph - N/A   Clear
1:15 AM 14.0 °F 2.9 °F 10.4 °F 86% 30.41 in 10.0 mi East 8.1 mph - N/A   Clear
1:35 AM 14.0 °F 2.9 °F 10.4 °F 86% 30.40 in 10.0 mi East 8.1 mph - N/A   Clear
1:55 AM 14.0 °F 2.0 °F 8.6 °F 79% 30.40 in 10.0 mi East 9.2 mph - N/A   Clear
2:15 AM 14.0 °F 2.0 °F 10.4 °F 86% 30.41 in 10.0 mi East 9.2 mph - N/A   Clear
2:35 AM 12.2 °F 0.7 °F 8.6 °F 85% 30.40 in 10.0 mi East 8.1 mph - N/A   Clear
2:55 AM 12.2 °F 0.7 °F 10.4 °F 92% 30.40 in 10.0 mi ENE 8.1 mph - N/A   Clear
3:15 AM 12.2 °F -1.0 °F 6.8 °F 79% 30.39 in 10.0 mi ENE 10.4 mph - N/A   Clear
3:35 AM 12.2 °F 1.7 °F 8.6 °F 85% 30.39 in 10.0 mi ENE 6.9 mph - N/A   Clear
3:55 AM 12.2 °F 0.7 °F 6.8 °F 79% 30.38 in 10.0 mi ENE 8.1 mph - N/A   Clear
4:15 AM 12.2 °F 0.7 °F 8.6 °F 85% 30.38 in 10.0 mi ENE 8.1 mph - N/A   Clear
4:35 AM 12.2 °F 0.7 °F 8.6 °F 85% 30.38 in 10.0 mi ENE 8.1 mph - N/A   Clear
4:55 AM 12.2 °F -0.2 °F 8.6 °F 85% 30.38 in 10.0 mi East 9.2 mph - N/A   Clear
5:15 AM 15.8 °F 5.1 °F 12.2 °F 86% 30.38 in 10.0 mi East 8.1 mph - N/A   Clear
5:35 AM 14.0 °F 2.9 °F 8.6 °F 79% 30.38 in 10.0 mi East 8.1 mph - N/A   Scattered Clouds
5:55 AM 14.0 °F 3.9 °F 10.4 °F 86% 30.38 in 10.0 mi East 6.9 mph - N/A   Mostly Cloudy
6:15 AM 15.8 °F 5.1 °F 12.2 °F 86% 30.38 in 10.0 mi East 8.1 mph - N/A   Scattered Clouds
6:35 AM 14.0 °F 2.0 °F 10.4 °F 86% 30.37 in 10.0 mi East 9.2 mph - N/A   Partly Cloudy
6:55 AM 12.2 °F 1.7 °F 8.6 °F 85% 30.37 in 10.0 mi East 6.9 mph - N/A   Partly Cloudy
7:15 AM 12.2 °F 1.7 °F 6.8 °F 79% 30.37 in 10.0 mi East 6.9 mph - N/A   Clear
7:35 AM 12.2 °F -0.2 °F 8.6 °F 85% 30.37 in 10.0 mi East 9.2 mph - N/A   Partly Cloudy
7:55 AM 14.0 °F 2.0 °F 10.4 °F 86% 30.37 in 10.0 mi East 9.2 mph - N/A   Partly Cloudy
8:15 AM 14.0 °F 2.9 °F 10.4 °F 86% 30.37 in 10.0 mi East 8.1 mph - N/A   Clear
8:35 AM 14.0 °F 2.9 °F 8.6 °F 79% 30.37 in 10.0 mi ENE 8.1 mph - N/A   Partly Cloudy
8:55 AM 15.8 °F 3.4 °F 10.4 °F 79% 30.37 in 10.0 mi ENE 10.4 mph - N/A   Clear
9:15 AM 17.6 °F 7.3 °F 15.8 °F 93% 30.37 in 10.0 mi ENE 8.1 mph - N/A   Clear
9:35 AM 17.6 °F 6.4 °F 12.2 °F 79% 30.38 in 10.0 mi NE 9.2 mph - N/A   Clear
9:55 AM 19.4 °F 8.6 °F 15.8 °F 86% 30.37 in 10.0 mi NE 9.2 mph - N/A   Clear
10:15 AM 19.4 °F 9.5 °F 14.0 °F 80% 30.37 in 10.0 mi NE 8.1 mph - N/A   Clear
10:35 AM 21.2 °F 10.9 °F 15.8 °F 80% 30.37 in 10.0 mi NE 9.2 mph - N/A   Clear
10:55 AM 23.0 °F 11.7 °F 17.6 °F 80% 30.36 in 10.0 mi NNE 11.5 mph 16.1 mph N/A   Clear
11:15 AM 24.8 °F 15.3 °F 17.6 °F 74% 30.34 in 10.0 mi NE 9.2 mph - N/A   Clear
11:35 AM 24.8 °F 14.6 °F 17.6 °F 74% 30.33 in 10.0 mi NE 10.4 mph - N/A   Clear
11:55 AM 24.8 °F 14.0 °F 19.4 °F 80% 30.33 in 10.0 mi NE 11.5 mph - N/A   Clear
12:15 PM 24.8 °F 14.6 °F 17.6 °F 74% 30.32 in 10.0 mi NE 10.4 mph - N/A   Clear
12:35 PM 24.8 °F 16.1 °F 23.0 °F 93% 30.32 in 10.0 mi NE 8.1 mph - N/A   Clear
12:55 PM 24.8 °F 12.9 °F 17.6 °F 74% 30.31 in 10.0 mi NNE 13.8 mph - N/A   Clear
1:15 PM 26.6 °F 17.5 °F 19.4 °F 74% 30.31 in 10.0 mi NE 9.2 mph - N/A   Clear
1:35 PM 26.6 °F 15.7 °F 19.4 °F 74% 30.30 in 10.0 mi NE 12.7 mph - N/A   Clear
1:55 PM 26.6 °F 15.2 °F 17.6 °F 69% 30.30 in 10.0 mi NE 13.8 mph - N/A   Clear
2:15 PM 26.6 °F 15.2 °F 19.4 °F 74% 30.29 in 10.0 mi NNE 13.8 mph - N/A   Clear
2:35 PM 26.6 °F 15.2 °F 15.8 °F 64% 30.29 in 10.0 mi NNE 13.8 mph - N/A   Clear
2:55 PM 26.6 °F 15.7 °F 17.6 °F 69% 30.28 in 10.0 mi NNE 12.7 mph - N/A   Clear
3:15 PM 26.6 °F 15.7 °F 19.4 °F 74% 30.27 in 10.0 mi NE 12.7 mph - N/A   Clear
3:35 PM 24.8 °F 14.0 °F 17.6 °F 74% 30.28 in 10.0 mi NNE 11.5 mph - N/A   Clear
3:55 PM 24.8 °F 14.6 °F 17.6 °F 74% 30.28 in 10.0 mi NNE 10.4 mph - N/A   Clear
4:15 PM 24.8 °F 15.3 °F 15.8 °F 69% 30.27 in 10.0 mi NNE 9.2 mph - N/A   Clear
4:35 PM 23.0 °F 14.7 °F 12.2 °F 63% 30.28 in 10.0 mi NE 6.9 mph - N/A   Clear
4:55 PM 19.4 °F 11.5 °F 10.4 °F 68% 30.27 in 10.0 mi NE 5.8 mph - N/A   Clear
5:15 PM 21.2 °F 13.6 °F 15.8 °F 80% 30.28 in 10.0 mi NE 5.8 mph - N/A   Clear
5:35 PM 17.6 °F 9.3 °F 12.2 °F 79% 30.28 in 10.0 mi ENE 5.8 mph - N/A   Clear
5:55 PM 17.6 °F 8.2 °F 8.6 °F 68% 30.28 in 10.0 mi ENE 6.9 mph - N/A   Clear
6:15 PM 15.8 °F 7.2 °F 8.6 °F 73% 30.29 in 10.0 mi ENE 5.8 mph - N/A   Clear
6:35 PM 14.0 °F 3.9 °F 12.2 °F 93% 30.28 in 10.0 mi ENE 6.9 mph - N/A   Clear
6:55 PM 14.0 °F 2.0 °F 10.4 °F 86% 30.28 in 10.0 mi NE 9.2 mph - N/A   Clear
7:15 PM 17.6 °F 10.7 °F 14.0 °F 86% 30.30 in 10.0 mi NNE 4.6 mph - N/A   Clear
7:35 PM 15.8 °F 7.2 °F 10.4 °F 79% 30.30 in 10.0 mi ENE 5.8 mph - N/A   Clear
7:55 PM 15.8 °F - 10.4 °F 79% 30.31 in 10.0 mi Calm Calm - N/A   Clear
8:15 PM 12.2 °F 4.3 °F 6.8 °F 79% 30.29 in 10.0 mi ENE 4.6 mph - N/A   Clear
8:35 PM 15.8 °F 10.2 °F 12.2 °F 86% 30.29 in 10.0 mi East 3.5 mph - N/A   Clear
8:55 PM 12.2 °F - 6.8 °F 79% 30.29 in 10.0 mi Calm Calm - N/A   Clear
9:15 PM 12.2 °F 2.9 °F 6.8 °F 79% 30.30 in 10.0 mi North 5.8 mph - N/A   Clear
9:35 PM 10.4 °F 4.0 °F 6.8 °F 85% 30.30 in 10.0 mi East 3.5 mph - N/A   Clear
9:55 PM 10.4 °F - 6.8 °F 85% 30.31 in 9.0 mi Calm Calm - N/A   Clear
10:15 PM 8.6 °F - 1.4 °F 73% 30.32 in 7.0 mi Calm Calm - N/A   Partly Cloudy
10:35 PM 8.6 °F - 8.6 °F 100% 30.32 in 10.0 mi Calm Calm - N/A   Clear
10:55 PM 10.4 °F - 8.6 °F 92% 30.32 in 9.0 mi Calm Calm - N/A   Partly Cloudy
11:15 PM 8.6 °F - 1.4 °F 73% 30.32 in 9.0 mi Calm Calm - N/A   Mostly Cloudy
11:35 PM 8.6 °F 0.1 °F 3.2 °F 79% 30.32 in 3.0 mi ENE 4.6 mph - N/A   Mostly Cloudy
11:55 PM 10.4 °F 2.2 °F 8.6 °F 92% 30.33 in 10.0 mi NNE 4.6 mph - N/A   Overcast